Home > Weather > Monrovia > Past weeks

Flag for Liberia Weather for the Past 2 Weeks in Monrovia, Liberia

Now
79 °F

Broken clouds.


Feels Like: 82 °F
Forecast: 81 / 87 °F
Wind: No wind

Location: Roberts Field

Current Time: May 3, 2016 at 9:36:26 AM

Latest Report: May 3, 2016 at 9:00 AM


Visibility: N/A

Pressure: 29.92 "Hg

Humidity: 84%

Dew Point: 73 °F

Location of MonroviaLocation

Historic Weather in Monrovia — Graph

°F

Monrovia Temperature Yesterday

Maximum temperature yesterday: 91 °F (at 1:30 PM)
Minimum temperature yesterday: 75 °F (at 9:30 PM)
Average temperature yesterday: 84 °F

High & Low Weather Summary for the Past Weeks

 TemperatureHumidityPressure
High95 °F (Apr 27, 3:30 PM)100% (May 1, 7:00 AM)29.95 "Hg (May 1, 7:00 AM)
Low73 °F (May 3, 2:30 AM)56% (Apr 27, 1:30 PM)29.74 "Hg (Apr 25, 3:00 PM)
Average83 °F82%29.83 "Hg
* Reported Apr 18 9:00 AM — May 3 8:00 AM, Monrovia, Weather by CustomWeather, © 2016

Note: Actual official high and low records may vary slightly from our data, if they occured in-between our weather recording intervals... More about our weather records

Advertising

Monrovia Weather History for the Previous 24 Hours

Scroll right to see more
 ConditionsComfort  
Time TempWeatherWind HumidityBarometerVisibility
8:00 AM
Tue, May 3
75 °FBroken clouds.No wind94%29.89 "HgN/A
7:30 AM73 °FBroken clouds.No wind94%29.86 "HgN/A
7:00 AM73 °FPartly cloudy.No wind94%29.86 "HgN/A
6:30 AM73 °FPassing clouds.5 mph94%29.86 "HgN/A
6:00 AM73 °FPassing clouds.5 mph94%29.86 "HgN/A
5:30 AM73 °FPassing clouds.No wind94%29.86 "HgN/A
4:30 AM73 °FPassing clouds.No wind94%29.83 "HgN/A
3:30 AM73 °FPartly cloudy.No wind100%29.86 "HgN/A
3:00 AM73 °FPartly cloudy.No wind100%29.83 "HgN/A
2:30 AM73 °FPartly cloudy.3 mph100%29.86 "HgN/A
2:00 AM75 °FThunderstorms. Passing clouds.No wind94%29.86 "HgN/A
1:00 AM75 °FThunderstorms. Passing clouds.No wind94%29.89 "HgN/A
12:30 AM75 °FThunderstorms. Passing clouds.7 mph94%29.89 "Hg6 mi
12:00 AM75 °FThunderstorms. Partly cloudy.No wind94%29.89 "Hg6 mi
11:30 PM
Mon, May 2
75 °FThunderstorms. Partly cloudy.3 mph94%29.92 "Hg6 mi
11:00 PM75 °FThunderstorms. Partly cloudy.3 mph94%29.92 "Hg5 mi
10:00 PM75 °FThunderstorms. Passing clouds.7 mph94%29.95 "Hg5 mi
9:30 PM75 °FThunderstorms. Passing clouds.6 mph94%29.92 "Hg5 mi
9:00 PM77 °FThunderstorms. Passing clouds.No wind94%29.89 "Hg5 mi
8:30 PM77 °FThunderstorms. Passing clouds.7 mph94%29.86 "Hg5 mi
8:00 PM79 °FThunderstorms. Passing clouds.16 mph94%29.86 "Hg4 mi
7:30 PM82 °FPartly sunny.No wind89%29.83 "HgN/A
7:00 PM84 °FScattered clouds.5 mph84%29.83 "HgN/A
6:30 PM84 °FScattered clouds.9 mph84%29.80 "HgN/A
6:00 PM86 °FScattered clouds.12 mph75%29.77 "HgN/A
5:30 PM88 °FPassing clouds.12 mph70%29.77 "HgN/A
5:00 PM88 °FPassing clouds.13 mph70%29.77 "HgN/A
4:30 PM90 °FPassing clouds.14 mph67%29.74 "HgN/A
4:00 PM91 °FScattered clouds.12 mph63%29.77 "HgN/A
3:30 PM91 °FScattered clouds.14 mph63%29.77 "HgN/A
3:00 PM91 °FScattered clouds.13 mph67%29.77 "HgN/A
2:30 PM91 °FPartly sunny.12 mph67%29.77 "HgN/A
2:00 PM91 °FPartly sunny.14 mph67%29.77 "HgN/A
1:30 PM91 °FPartly sunny.12 mph67%29.80 "HgN/A
1:00 PM90 °FPartly sunny.6 mph71%29.83 "HgN/A
12:30 PM90 °FPartly sunny.7 mph71%29.83 "HgN/A
12:00 PM88 °FPartly sunny.6 mph75%29.83 "HgN/A
11:30 AM88 °FPartly sunny.9 mph75%29.86 "HgN/A
11:00 AM88 °FPartly sunny.5 mph75%29.86 "HgN/A
10:30 AM88 °FPartly sunny.13 mph75%29.89 "HgN/A
10:00 AM88 °FPartly sunny.5 mph75%29.89 "HgN/A
9:30 AM86 °FPartly sunny.12 mph75%29.89 "Hg6 mi
9:00 AM84 °FScattered clouds.9 mph84%29.89 "Hg5 mi
Weather by CustomWeather, © 2016

See weather overviewHow to use our weather pages